Location: Lewisville
(33.0462°N, 96.9942°W)
Time: 12:24:28
(UTC-06:00)

Envisat - Pass Details

Date: 07 December 2019
Orbit: 764 x 766 km, 98.1° (Epoch: 19 January)

Event Time Altitude Azimuth Distance (km) Brightness Sun altitude
Rises 18:24:19 0° 163° (SSE) 3,217 6.3 -13.1°
Reaches altitude 10° 18:26:36 10° 162° (SSE) 2,294 5.5 -13.5°
Maximum altitude 18:31:39 79° 77° (ENE) 783 2.9 -14.5°
Drops below altitude 10° 18:36:45 10° 351° (N) 2,308 5.4 -15.6°
Sets 18:39:03 0° 350° (N) 3,238 6.2 -16.0°
